Temp
10 10 11 12 11 12 11 12 11 12 12 12 12 13 13 12 12 11 10 10 10 10 10 10 10 10 10 10 10 11 11 11 11 10 10 10 10 9 9 8 8 8 7 6 6 6 6 6 6
10 10 11 11 11 12 11 10 11 11 11 11 12 12 12 12 11 11 10 10 10 10 11 11 11 10 10 10 10 10 10 10 10 10 10 10 10 9 9 8 8 8 7 7 6 6 6 6 6
10 10 10 11 11 11 10 10 10 11 11 10 12 12 12 11 10 10 10 10 11 11 11 11 11 10 10 10 10 10 10 10 10 10 9 9 9 9 8 8 8 7 7 7 6 6 6 6 7
9 9 10 10 10 9 8 10 11 11 11 11 11 11 11 10 9 10 11 11 11 10 10 11 10 10 10 9 9 9 9 10 10 9 9 9 9 8 8 8 8 7 7 7 7 6 6 6 6
9 9 10 10 9 8 9 9 10 10 10 11 11 10 10 9 9 10 11 11 11 10 10 10 11 10 9 9 8 9 9 9 9 9 9 9 8 8 8 7 7 7 7 7 6 6 6 6 6
8 8 9 10 9 8 8 9 10 9 9 9 10 10 9 9 8 9 9 9 9 9 9 9 10 9 9 8 8 8 8 9 9 9 9 9 8 8 8 7 7 7 7 7 6 6 6 6 6
8 8 9 9 8 8 9 8 9 9 8 9 8 8 8 7 8 8 8 7 8 8 8 8 8 9 9 9 8 8 8 8 9 9 9 9 9 8 8 7 7 6 6 6 6 6 6 6 5
8 8 8 9 7 7 8 8 8 8 9 8 7 8 7 7 7 8 8 8 8 9 9 9 9 9 8 9 8 7 7 8 8 9 9 9 9 8 8 7 7 6 6 6 6 6 6 5 5
8 8 8 8 7 7 7 8 8 8 8 8 8 7 7 7 6 6 8 8 7 7 8 8 8 9 9 9 7 7 7 7 7 7 8 9 9 9 9 8 7 6 6 6 6 6 5 5 5
8 8 7 7 7 7 7 7 7 8 8 8 8 7 7 7 7 6 7 7 8 7 7 7 8 8 7 8 9 8 7 7 7 6 7 7 8 8 9 8 7 6 6 6 6 6 5 5 5
8 8 7 7 7 6 6 7 7 7 7 8 8 8 8 7 7 7 8 7 7 7 7 7 7 7 7 7 7 8 7 7 6 6 6 6 7 8 8 8 8 7 7 6 6 6 5 5 5
7 7 7 7 7 7 7 7 6 6 7 7 7 8 8 8 7 6 6 7 7 7 7 7 6 6 7 6 6 6 7 6 7 6 5 6 6 7 7 8 8 7 7 6 5 5 5 5 5
6 7 7 7 7 8 7 6 6 6 6 6 6 6 6 5 6 6 6 6 6 6 6 6 6 5 5 5 5 6 6 6 6 5 6 6 5 6 6 7 7 7 7 7 6 5 5 5 5
6 6 6 6 6 6 7 6 6 6 5 5 5 5 5 5 5 5 5 5 5 5 5 5 5 5 5 5 5 5 5 5 5 5 6 5 5 5 6 5 6 7 7 7 6 5 5 5 5
5 6 6 6 7 7 6 6 5 5 5 5 5 5 5 5 5 5 5 5 4 4 4 4 4 4 4 4 5 5 5 4 5 5 5 5 6 5 6 5 5 6 7 6 6 6 5 4 4
5 5 6 6 6 6 6 5 5 4 4 4 4 4 4 4 4 4 4 4 4 4 4 3 3 4 4 4 4 5 5 5 4 5 5 5 6 5 5 5 5 5 6 5 6 6 5 5 5
4 5 5 5 5 5 5 5 5 4 4 4 4 4 4 4 4 4 3 3 3 3 3 3 3 4 4 4 5 5 5 5 5 5 5 5 5 5 5 5 4 5 5 5 5 6 5 4 5
4 4 4 4 4 4 4 4 4 4 4 4 4 4 4 4 4 3 3 3 3 3 3 3 3 4 4 5 6 6 6 6 6 6 5 5 5 5 4 4 5 5 5 5 5 5 5 4 5
3 3 3 4 3 4 4 4 4 4 3 3 3 3 3 3 3 3 3 3 3 3 3 3 3 4 4 5 5 6 6 6 6 6 6 5 4 5 5 4 5 4 5 5 5 4 5 5 4
2 2 3 3 3 3 3 3 3 2 2 2 2 2 2 3 3 3 2 2 2 3 3 3 4 4 4 4 4 4 4 5 6 6 6 5 4 3 4 4 4 3 4 4 4 3 4 5 4
2 1 2 2 2 3 2 2 2 2 2 1 1 1 1 2 2 2 2 2 2 3 3 3 3 4 3 3 3 3 4 4 5 5 5 4 4 4 3 3 4 4 4 4 1 3 4 4 4
1 2 2 2 2 2 2 -0 1 1 -0 -0 -0 0 1 1 1 1 1 2 2 2 2 2 2 2 2 1 2 2 3 4 4 4 4 5 3 3 3 3 3 3 4 4 3 3 3 3 4
1 1 1 1 1 1 1 1 -2 -1 -1 -1 -1 -1 -0 0 1 1 1 1 1 1 1 1 1 1 1 1 1 1 2 3 3 3 3 4 4 3 3 3 3 2 3 2 4 4 3 3 3
1 1 1 1 0 -2 0 1 -2 -2 -1 -2 -2 -1 -1 -0 -0 -0 0 0 -0 -0 -1 -1 -1 -1 -0 -0 -1 -1 -1 -0 1 2 2 2 3 2 3 3 3 2 2 2 2 3 2 3 3
0 -0 -1 -2 -3 -2 1 -0 -0 -2 -2 -2 -1 -1 -1 -1 -0 -0 -0 -1 -1 -1 -1 -1 -2 -2 -1 -1 -2 -2 -2 -2 -2 -1 -0 0 1 1 1 2 2 2 1 2 2 2 2 1 4
0 0 0 -1 -3 -3 -1 -1 -2 -2 -1 -1 -2 -2 -2 -1 -1 -1 -1 -1 -1 -1 -1 -2 -2 -2 -2 -2 -2 -2 -2 -2 -2 -1 -2 -1 0 1 1 0 1 2 2 2 2 2 2 2 2
-0 -0 0 -0 -1 -2 -1 -4 -2 -2 -2 -2 -2 -2 -2 -2 -2 -2 -2 -2 -2 -2 -2 -2 -2 -3 -3 -3 -3 -3 -3 -3 -2 -2 -1 -1 -0 0 1 1 1 1 1 1 0 1 2 1 2
-0 0 -1 -1 -2 -2 -4 -4 -2 -1 -2 -3 -3 -2 -2 -2 -3 -3 -3 -2 -2 -3 -3 -3 -3 -3 -3 -3 -3 -4 -4 -4 -4 -3 -3 -2 -1 0 1 1 0 0 0 0 -0 -0 1 2 3
-1 -1 -0 -1 -1 -3 -4 -3 -1 -2 -3 -3 -3 -3 -3 -3 -3 -3 -3 -3 -3 -3 -4 -4 -4 -3 -3 -4 -4 -4 -5 -5 -6 -5 -5 -3 -2 -1 -0 -0 -0 -0 -0 1 1 1 1 2 3
-0 -0 -0 -0 -2 -2 -3 -3 -2 -2 -3 -3 -3 -3 -4 -4 -4 -4 -4 -4 -4 -4 -4 -4 -4 -4 -4 -4 -4 -4 -5 -5 -6 -7 -6 -5 -4 -3 -2 -1 -1 -2 -2 -1 0 1 2 3 3
Height
3154 3155 3156 3157 3160 3157 3155 3157 3157 3158 3158 3157 3157 3157 3156 3156 3156 3161 3160 3160 3160 3160 3161 3161 3162 3162 3162 3162 3161 3160 3160 3159 3157 3156 3155 3153 3152 3151 3150 3149 3150 3150 3150 3149 3149 3149 3150 3150 3151
3153 3154 3157 3156 3158 3156 3156 3157 3157 3157 3158 3157 3157 3156 3157 3157 3158 3159 3159 3160 3160 3160 3161 3161 3160 3161 3161 3161 3160 3160 3159 3159 3158 3156 3155 3154 3153 3152 3151 3150 3150 3150 3150 3149 3149 3149 3149 3150 3151
3152 3153 3156 3156 3154 3156 3157 3155 3155 3156 3157 3157 3156 3156 3157 3157 3157 3157 3159 3159 3160 3160 3159 3159 3159 3159 3159 3159 3160 3159 3159 3158 3158 3156 3155 3154 3153 3153 3152 3151 3150 3150 3150 3150 3149 3149 3148 3149 3151
3150 3153 3156 3155 3154 3156 3154 3153 3153 3154 3156 3156 3156 3156 3156 3156 3157 3158 3159 3158 3158 3158 3158 3157 3157 3157 3156 3157 3157 3158 3158 3157 3157 3156 3155 3154 3153 3153 3152 3151 3151 3151 3150 3150 3150 3148 3148 3149 3150
3149 3151 3153 3153 3155 3156 3155 3152 3153 3153 3155 3156 3156 3154 3155 3155 3156 3156 3156 3157 3157 3156 3155 3154 3154 3154 3153 3154 3155 3156 3156 3156 3156 3155 3155 3153 3153 3153 3152 3152 3151 3151 3150 3150 3149 3149 3148 3148 3149
3147 3149 3150 3151 3153 3155 3155 3154 3154 3154 3155 3154 3155 3155 3156 3155 3156 3156 3154 3155 3154 3154 3152 3151 3149 3148 3148 3150 3152 3154 3155 3155 3155 3154 3154 3153 3152 3152 3152 3151 3151 3151 3150 3150 3149 3148 3147 3147 3148
3145 3147 3147 3149 3151 3153 3154 3155 3155 3155 3154 3154 3153 3153 3155 3156 3154 3152 3150 3150 3149 3148 3148 3149 3149 3149 3147 3148 3150 3152 3153 3153 3153 3153 3152 3152 3151 3151 3150 3150 3150 3150 3150 3149 3149 3147 3146 3146 3147
3144 3146 3145 3147 3148 3151 3153 3154 3154 3155 3154 3153 3152 3152 3153 3150 3149 3148 3148 3146 3146 3146 3147 3147 3146 3144 3144 3143 3145 3148 3150 3151 3151 3150 3150 3149 3149 3149 3149 3149 3148 3148 3148 3148 3148 3146 3145 3144 3145
3143 3144 3144 3146 3147 3148 3150 3151 3153 3153 3154 3154 3151 3148 3149 3148 3147 3146 3146 3143 3142 3143 3143 3142 3143 3144 3142 3140 3140 3141 3142 3144 3147 3147 3147 3147 3147 3147 3146 3146 3146 3146 3146 3146 3146 3145 3143 3143 3142
3141 3141 3144 3145 3146 3145 3146 3149 3150 3151 3150 3152 3144 3146 3146 3147 3146 3145 3143 3142 3139 3137 3139 3139 3139 3138 3139 3139 3138 3136 3137 3138 3140 3142 3143 3143 3144 3143 3143 3143 3142 3142 3143 3143 3143 3143 3142 3140 3140
3138 3140 3141 3141 3143 3142 3143 3145 3147 3144 3142 3142 3145 3143 3142 3142 3141 3140 3139 3139 3138 3136 3133 3133 3136 3135 3134 3134 3135 3134 3131 3133 3134 3135 3136 3139 3139 3139 3139 3138 3138 3138 3138 3139 3140 3140 3140 3138 3138
3137 3137 3138 3139 3140 3140 3141 3143 3143 3138 3138 3138 3138 3138 3138 3138 3138 3136 3135 3133 3133 3132 3132 3130 3129 3129 3129 3127 3129 3129 3129 3127 3127 3128 3130 3130 3132 3134 3134 3134 3133 3134 3134 3135 3136 3137 3137 3135 3134
3135 3135 3136 3136 3137 3138 3139 3140 3136 3136 3135 3135 3134 3135 3135 3135 3134 3133 3133 3133 3131 3130 3129 3127 3127 3126 3125 3124 3123 3122 3124 3124 3123 3122 3121 3123 3123 3126 3128 3128 3128 3128 3129 3130 3131 3132 3133 3132 3131
3132 3132 3134 3133 3133 3133 3136 3139 3134 3134 3134 3133 3133 3133 3133 3133 3131 3130 3130 3129 3128 3126 3126 3125 3123 3122 3122 3120 3118 3116 3115 3117 3118 3117 3117 3115 3117 3117 3119 3122 3123 3122 3123 3125 3125 3127 3128 3128 3128
3129 3129 3130 3129 3128 3126 3131 3130 3129 3129 3130 3131 3131 3130 3130 3129 3128 3126 3125 3125 3124 3123 3121 3118 3117 3116 3116 3115 3113 3111 3109 3107 3107 3109 3109 3110 3109 3110 3110 3112 3115 3116 3116 3117 3118 3119 3121 3121 3122
3128 3128 3127 3126 3123 3123 3125 3123 3124 3126 3127 3127 3127 3127 3126 3125 3124 3122 3120 3119 3118 3117 3116 3114 3111 3108 3107 3106 3105 3103 3101 3100 3098 3095 3098 3100 3101 3100 3099 3105 3105 3107 3107 3110 3111 3113 3114 3114 3115
3124 3125 3125 3123 3122 3123 3122 3121 3121 3123 3123 3123 3123 3122 3122 3121 3119 3116 3114 3112 3111 3110 3109 3108 3106 3102 3098 3096 3094 3093 3093 3090 3088 3087 3085 3088 3090 3091 3092 3093 3097 3097 3098 3101 3104 3106 3109 3110 3109
3120 3121 3123 3122 3122 3121 3119 3117 3117 3118 3119 3119 3119 3118 3117 3115 3114 3112 3110 3107 3105 3103 3101 3099 3097 3093 3090 3085 3081 3078 3076 3079 3077 3076 3075 3074 3075 3080 3082 3083 3083 3087 3088 3090 3094 3098 3101 3104 3106
3118 3119 3120 3119 3120 3119 3117 3115 3114 3113 3114 3114 3114 3114 3114 3111 3109 3107 3106 3104 3101 3098 3095 3091 3087 3083 3078 3075 3071 3067 3062 3060 3063 3063 3062 3061 3061 3064 3068 3069 3072 3073 3078 3078 3082 3088 3092 3097 3098
3113 3114 3116 3117 3117 3116 3113 3111 3109 3110 3109 3110 3109 3109 3109 3107 3106 3105 3103 3101 3098 3096 3091 3086 3080 3072 3066 3061 3056 3052 3047 3044 3042 3046 3045 3047 3048 3049 3052 3057 3060 3062 3062 3063 3065 3072 3081 3085 3087
3108 3108 3111 3113 3113 3111 3110 3105 3104 3105 3105 3104 3104 3103 3103 3103 3103 3102 3099 3096 3092 3087 3082 3076 3070 3064 3057 3049 3043 3038 3034 3029 3026 3027 3029 3029 3032 3034 3036 3040 3046 3048 3045 3036 3039 3058 3067 3071 3075
3104 3106 3107 3108 3110 3108 3106 3099 3094 3097 3098 3099 3099 3099 3099 3099 3098 3096 3094 3091 3087 3082 3076 3070 3063 3056 3049 3042 3033 3027 3019 3014 3010 3008 3010 3012 3016 3020 3023 3025 3029 3032 3037 3036 3031 3033 3042 3059 3062
3099 3103 3104 3104 3105 3104 3103 3104 3088 3091 3092 3093 3093 3094 3094 3094 3092 3090 3087 3083 3079 3075 3070 3065 3058 3051 3043 3033 3023 3014 3007 3003 2997 2993 2993 2996 2999 3002 3009 3012 3015 3017 3022 3025 3024 3021 3025 3046 3054
3096 3098 3100 3100 3101 3098 3095 3101 3087 3088 3087 3086 3087 3090 3090 3089 3087 3084 3080 3077 3074 3069 3064 3057 3050 3043 3036 3026 3017 3007 2999 2990 2983 2979 2978 2982 2984 2988 2993 2997 2999 3003 3008 3013 3017 3023 3016 3023 3043
3092 3094 3096 3099 3098 3090 3088 3090 3085 3085 3084 3085 3084 3085 3085 3084 3081 3079 3076 3072 3068 3063 3058 3053 3046 3038 3030 3021 3013 3003 2994 2985 2975 2968 2966 2968 2972 2975 2979 2982 2985 2988 2994 3000 3004 3010 3015 3018 3023
3087 3088 3086 3086 3089 3085 3086 3082 3079 3081 3082 3082 3081 3081 3081 3079 3077 3075 3071 3067 3064 3059 3053 3048 3041 3034 3026 3016 3010 2998 2988 2977 2968 2964 2959 2958 2960 2962 2967 2968 2972 2977 2980 2986 2991 2994 3000 3004 3006
3082 3081 3086 3085 3084 3084 3080 3078 3077 3079 3079 3079 3078 3078 3078 3076 3073 3070 3067 3063 3061 3055 3049 3042 3036 3031 3022 3013 3008 2997 2985 2974 2964 2957 2953 2951 2951 2950 2953 2956 2958 2964 2967 2971 2977 2981 2986 2991 2992
3073 3078 3080 3081 3083 3081 3076 3074 3072 3075 3075 3076 3076 3076 3075 3072 3069 3067 3064 3060 3056 3050 3045 3039 3032 3026 3019 3011 3005 2995 2984 2973 2962 2953 2949 2946 2944 2942 2941 2943 2946 2950 2954 2958 2964 2968 2974 2977 2984
3069 3070 3073 3074 3075 3075 3076 3072 3070 3071 3073 3073 3074 3073 3071 3068 3066 3064 3061 3056 3051 3046 3042 3036 3029 3024 3017 3009 3004 2994 2986 2974 2961 2950 2945 2941 2939 2938 2934 2931 2930 2935 2940 2944 2950 2956 2963 2968 2976
3064 3065 3067 3067 3072 3071 3070 3069 3069 3070 3070 3069 3070 3068 3066 3065 3063 3060 3057 3053 3048 3044 3040 3034 3027 3021 3015 3008 3000 2992 2984 2975 2964 2955 2946 2940 2934 2928 2925 2924 2922 2923 2926 2931 2936 2944 2951 2958 2961
Wind_Speed
7 5 4 2 2 5 8 6 6 4 5 2 3 4 3 3 4 4 9 7 3 2 5 8 10 11 13 11 9 10 11 12 12 13 12 11 9 5 4 5 6 7 8 8 8 8 8 7 6
7 4 3 1 1 6 11 11 7 5 12 5 3 2 3 5 5 6 4 1 3 4 8 8 13 13 15 16 14 12 11 12 12 12 12 11 10 6 5 6 6 7 7 7 8 8 8 7 5
9 5 3 2 3 4 5 10 9 4 10 7 6 5 2 4 4 2 2 5 6 8 12 10 11 17 18 19 18 14 12 13 13 12 11 10 10 8 7 7 7 8 8 8 9 8 8 7 5
9 6 4 5 4 5 16 12 9 11 11 10 7 5 3 3 2 7 9 12 12 11 13 12 11 16 18 21 21 17 15 15 13 12 12 11 10 9 9 9 9 9 10 10 9 9 8 7 5
8 8 8 7 4 7 12 7 11 11 11 8 7 6 5 5 5 8 14 18 17 16 14 12 14 17 18 19 22 20 18 17 15 13 13 13 11 11 10 11 11 10 10 10 10 11 10 9 7
7 8 7 11 7 8 13 11 9 9 11 7 3 8 5 4 3 9 13 14 16 17 17 15 13 11 12 15 21 20 20 19 18 17 16 15 13 13 13 13 13 13 12 12 12 12 12 11 9
7 10 10 12 9 9 6 6 9 12 11 6 6 5 4 4 3 8 12 12 14 17 18 15 14 15 13 11 18 21 22 22 21 21 19 18 16 15 15 16 16 16 15 14 14 14 13 12 11
9 11 10 13 8 5 6 1 4 1 4 6 9 4 4 7 8 14 18 22 22 25 26 22 18 14 13 14 17 21 23 25 25 24 23 22 19 18 18 18 18 19 18 17 16 15 15 14 13
11 12 10 11 7 6 6 5 3 2 4 5 8 10 10 10 10 11 19 25 24 24 23 26 24 21 19 18 17 23 26 26 26 27 27 26 24 21 21 21 21 21 21 20 18 16 16 15 15
14 15 7 7 9 8 10 10 8 7 11 12 18 17 19 19 19 18 19 25 31 29 24 24 27 29 24 24 26 25 26 27 27 29 30 28 26 25 22 23 24 24 24 23 21 19 18 17 17
17 17 12 12 14 13 13 13 13 17 18 20 22 28 28 25 28 30 30 31 30 34 35 32 28 30 32 29 25 31 29 26 26 29 30 32 31 29 28 26 27 27 27 26 24 21 19 19 19
17 16 15 16 17 17 16 14 14 15 18 18 20 23 23 25 24 22 22 27 31 33 35 35 31 27 32 34 29 24 34 32 31 28 30 32 34 34 33 31 29 29 29 28 27 24 22 22 21
20 17 16 18 16 17 16 15 18 15 18 15 15 15 15 17 19 20 18 18 21 23 25 27 26 26 26 29 34 35 30 32 36 33 32 35 35 37 38 34 33 31 31 31 29 28 26 25 24
15 17 18 19 20 20 18 18 21 16 15 14 18 17 16 18 19 19 21 23 26 29 30 31 33 33 33 32 32 36 39 38 35 40 39 32 34 35 38 39 37 35 33 32 32 31 29 28 27
16 18 16 14 16 19 20 20 18 16 11 12 17 19 20 22 23 25 27 29 28 30 33 33 33 34 34 33 34 32 34 39 45 44 40 43 39 36 37 38 42 41 37 34 36 36 35 33 32
13 14 9 7 7 8 15 18 18 16 16 18 20 22 24 26 27 29 31 30 31 32 31 32 37 39 40 42 38 38 38 39 43 52 51 45 47 44 54 45 44 44 42 39 39 39 40 38 36
12 9 9 8 9 9 15 14 17 19 21 21 21 24 27 28 30 32 32 31 31 32 34 36 38 39 42 42 45 46 45 44 44 47 54 57 50 49 48 50 52 42 46 45 43 43 44 42 39
9 13 11 10 10 10 17 18 17 21 22 21 22 26 29 31 32 31 32 34 35 35 37 40 41 45 46 45 47 49 48 45 44 47 50 54 60 55 51 48 49 54 50 49 47 48 47 46 42
10 12 11 14 10 12 16 22 25 25 24 24 26 28 30 30 30 30 32 34 34 37 40 44 48 49 51 51 50 48 52 52 49 50 53 55 57 60 59 54 52 64 67 59 50 53 51 49 46
16 11 16 15 13 12 16 19 22 22 23 25 26 26 27 26 26 29 31 31 35 36 39 41 44 47 49 51 52 51 51 50 53 53 57 56 58 58 61 61 54 54 63 74 55 56 55 53 50
17 18 16 15 15 18 18 25 25 25 25 24 23 24 23 22 22 26 31 32 34 36 39 43 46 49 50 52 52 52 49 51 52 53 52 55 56 59 60 62 62 65 58 57 63 55 59 58 55
19 17 16 15 16 15 18 8 19 20 22 23 23 22 22 22 25 25 26 28 31 35 38 39 42 45 47 49 48 49 50 53 54 52 52 54 53 56 59 61 65 64 71 61 55 61 66 60 58
20 19 17 14 16 18 16 11 12 18 20 23 22 21 21 21 24 24 26 29 31 32 32 33 36 39 41 43 44 48 49 51 55 53 49 52 53 53 59 62 62 67 63 73 59 45 58 55 57
18 18 16 14 14 9 26 22 10 15 18 20 20 21 20 19 21 24 27 28 28 29 30 33 36 38 40 42 45 44 47 51 51 49 52 48 49 49 53 60 64 60 68 66 64 58 57 41 53
22 16 4 2 4 6 6 18 22 10 12 13 14 13 15 18 22 25 25 26 27 28 29 31 34 38 38 42 44 42 40 41 39 40 42 45 46 44 44 51 61 64 59 61 66 68 65 58 57
25 25 8 6 4 3 9 8 8 15 16 12 12 12 16 20 22 24 24 25 26 27 28 30 31 35 39 43 43 42 40 39 34 34 34 34 39 44 42 44 47 58 62 64 59 59 64 66 47
19 29 24 2 4 0 6 7 11 12 12 10 11 13 16 19 21 22 24 24 24 24 27 30 31 32 34 40 43 39 41 38 32 28 32 35 37 39 42 44 45 46 51 56 57 56 58 56 62
31 17 16 16 4 4 3 7 12 7 8 7 10 15 17 19 19 21 23 23 23 24 26 28 30 31 31 33 40 43 42 40 38 31 27 27 36 39 44 46 44 42 45 51 51 50 48 61 51
29 21 12 15 6 4 1 5 5 7 8 10 15 15 17 17 18 20 21 22 24 26 28 28 29 30 30 30 33 39 41 40 40 38 32 28 25 28 41 48 46 38 38 43 51 50 50 56 62
25 25 26 15 6 7 3 7 9 9 13 14 13 17 17 16 17 20 22 23 24 25 27 27 28 29 30 30 30 32 38 40 39 35 29 28 31 37 32 34 40 32 25 32 40 41 45 50 59
Wind_Direction
277 290 302 312 7 63 67 78 75 118 62 149 238 208 205 124 54 80 131 150 135 347 311 293 284 261 258 264 272 285 301 312 323 326 333 332 323 299 234 217 216 218 210 209 214 223 229 222 222
264 256 266 229 293 103 91 68 58 101 132 142 130 76 102 91 65 93 137 105 231 289 321 308 278 270 264 258 259 269 285 298 310 316 320 325 319 298 255 227 220 228 226 223 224 227 235 234 228
252 239 220 198 233 105 7 322 337 157 156 150 198 201 181 102 78 46 280 276 290 279 294 311 281 264 268 259 254 259 271 282 293 301 305 312 308 292 255 238 232 229 233 235 233 232 237 246 247
255 243 216 218 177 66 3 331 322 161 163 184 188 207 168 120 27 315 298 294 303 312 308 292 279 260 264 252 245 250 258 267 277 288 294 297 295 281 258 242 236 235 230 233 237 233 237 244 251
250 234 214 209 187 64 44 26 127 144 170 186 211 198 212 189 220 261 277 280 286 301 304 283 272 273 264 251 237 242 251 261 268 276 282 285 282 275 259 247 240 235 230 230 238 243 245 248 243
239 230 206 211 183 101 76 92 139 155 120 125 238 211 193 207 255 260 277 290 300 303 306 305 285 266 258 246 235 240 250 258 264 270 274 277 273 268 264 253 243 239 235 238 243 245 251 254 246
239 232 216 208 173 136 115 90 122 136 131 131 153 181 145 189 261 269 286 290 287 287 296 303 303 293 260 244 237 240 250 259 266 270 271 271 272 266 260 256 249 243 241 239 243 250 254 257 250
240 233 225 216 202 172 192 181 95 150 197 141 184 193 160 188 223 249 271 285 287 287 292 290 291 270 270 238 229 240 249 258 262 266 269 270 268 269 264 255 250 246 244 244 245 251 255 254 251
250 233 224 219 199 196 252 243 233 223 216 221 275 250 243 227 226 245 276 284 288 287 282 284 284 282 274 258 233 231 238 248 258 265 269 273 274 274 272 261 250 246 246 245 246 248 255 254 250
241 243 237 209 213 257 273 283 285 280 269 232 255 260 263 264 260 247 259 273 281 284 278 278 279 278 276 273 269 243 239 237 247 258 267 270 272 271 269 266 257 247 244 243 244 245 249 253 253
244 246 231 214 225 260 271 289 299 295 282 271 258 253 258 262 263 263 260 262 268 275 282 283 278 277 277 276 267 258 243 238 239 247 256 267 268 267 266 262 260 256 247 243 244 245 247 249 252
244 247 243 241 233 253 273 289 305 282 282 278 268 268 264 263 264 268 273 273 272 275 278 282 284 276 267 275 272 264 265 247 238 244 250 251 262 266 264 263 260 257 254 246 244 243 242 243 246
247 250 254 259 257 256 264 283 282 272 275 277 273 273 270 275 282 285 288 284 279 275 277 280 280 281 279 271 276 278 267 263 258 247 243 250 247 257 264 261 259 257 255 252 244 241 241 242 243
249 256 258 258 260 257 257 264 269 257 264 277 275 276 276 281 283 287 295 298 296 294 294 293 293 291 288 284 275 274 278 273 265 259 255 246 253 253 258 261 259 256 253 251 247 242 241 242 242
257 260 260 257 252 247 239 244 221 228 235 258 260 265 272 276 284 289 291 293 292 294 297 299 300 302 299 292 284 276 273 277 275 264 263 256 250 246 248 256 259 257 252 247 246 241 237 236 238
264 264 254 203 185 209 199 206 212 219 236 246 255 265 271 276 285 291 294 294 295 294 293 296 303 303 303 296 288 282 279 281 278 271 263 259 256 247 246 246 258 254 251 246 242 241 238 236 237
250 246 194 184 184 196 203 211 224 225 237 246 260 270 276 285 292 298 298 300 299 298 296 295 297 297 298 296 291 285 281 275 278 271 270 264 258 256 246 244 243 250 252 249 243 240 239 238 237
223 213 219 200 186 190 220 232 237 237 245 254 267 277 286 290 292 293 297 298 298 299 300 301 302 301 298 299 298 293 288 276 270 272 266 264 261 255 254 248 252 247 249 251 244 240 238 238 238
228 222 220 219 251 264 243 239 248 247 249 257 266 272 278 283 287 292 296 297 297 298 300 300 301 300 295 295 297 292 283 278 268 267 264 259 257 255 252 256 253 245 242 249 244 242 237 236 235
236 239 240 247 267 256 244 243 247 250 256 259 265 274 280 282 284 284 285 289 292 291 293 300 306 308 306 305 304 297 291 283 276 267 263 257 254 252 251 249 251 238 245 238 237 241 238 234 233
228 234 240 249 253 260 261 258 256 258 261 264 270 276 279 280 279 283 289 293 296 302 304 307 311 312 311 307 301 296 293 291 284 270 264 259 251 250 248 248 247 250 257 252 228 241 236 233 233
232 237 248 253 253 247 254 278 265 262 258 261 266 270 273 279 288 290 295 302 306 309 310 314 316 316 313 304 301 297 297 295 291 282 265 259 255 247 246 247 247 249 250 255 261 227 229 234 232
247 253 255 248 248 253 243 266 268 236 246 255 261 267 276 285 292 302 310 316 317 319 321 322 323 321 317 316 315 309 302 296 290 282 270 258 257 250 244 246 248 248 248 251 254 251 227 233 238
238 232 238 241 247 260 243 233 247 236 237 246 255 265 278 290 302 312 319 320 321 325 332 336 341 337 330 330 328 320 311 304 295 281 273 262 260 256 248 244 247 248 247 248 253 254 247 225 241
223 207 209 205 191 233 205 218 247 243 237 246 254 272 293 301 311 315 316 319 322 328 333 336 344 347 342 340 334 328 319 312 299 290 281 271 265 265 259 248 246 248 248 251 252 250 254 242 221
219 213 190 209 195 227 193 232 237 239 248 253 267 285 306 313 312 312 316 321 323 325 330 337 341 345 349 348 342 334 330 323 317 297 286 279 272 269 265 262 254 249 252 251 253 253 252 253 229
219 220 229 270 254 220 233 260 252 234 244 244 277 303 304 305 310 315 318 319 321 327 330 335 342 344 349 353 350 342 341 338 327 315 299 287 278 274 270 266 262 253 252 251 252 250 251 252 252
223 243 200 215 205 224 245 262 246 240 221 245 281 294 301 305 310 313 315 317 324 331 336 340 339 340 344 354 353 356 350 347 343 329 313 294 278 277 276 277 273 265 254 252 256 252 251 245 246
205 205 198 199 215 182 183 245 257 246 254 269 287 292 299 305 311 312 314 319 326 332 333 336 340 340 342 344 349 360 358 356 351 339 326 326 304 279 281 275 276 267 260 252 255 256 250 246 238
229 213 211 201 204 216 234 260 253 250 266 278 292 301 302 309 310 310 315 319 324 326 328 333 336 338 344 343 348 356 359 360 358 353 345 335 313 300 292 278 272 269 254 255 254 255 253 248 246